Regional Weather Roundup
Issued by NWS

Home | Current Version | Previous Version | Text Only | Print | Product List | Glossary Off
Versions: 1 2 3 4 5 6 7 8 9 10 11 12 13 14 15 16 17 18 19 20 21 22 23 24 25 26 27 28 29 30 31 32 33 34 35 36 37 38 39 40 41 42 43 44 45 46 47 48 49 50

000
ASUS43 KBIS 270710
RWRND

NORTH DAKOTA REGIONAL WEATHER ROUNDUP
NATIONAL WEATHER SERVICE BISMARCK ND
200 AM CDT WED AUG 27 2014

NOTE: "FAIR" INDICATES FEW OR NO CLOUDS BELOW 12,000 FEET WITH NO
SIGNIFICANT WEATHER AND/OR OBSTRUCTIONS TO VISIBILITY.


NDZ001>003-009>011-017-270800-
NORTHWEST NORTH DAKOTA

CITY           SKY/WX    TMP DP  RH WIND       PRES   REMARKS
WILLISTON      CLEAR     54  51  90 SW3       30.13R
MINOT          CLEAR     56  51  84 SW7       30.14F
MINOT AFB      CLEAR     55  54  99 SW8       30.14S
$$

NDZ018>021-031>035-040>046-270800-
SOUTHWEST NORTH DAKOTA

CITY           SKY/WX    TMP DP  RH WIND       PRES   REMARKS
BISMARCK       PTCLDY    54  53  97 NE5       30.19S
DICKINSON      CLEAR     50  49  96 S8        30.15F
GARRISON         N/A     51  50  96 S3        30.17S
HETTINGER ARPT CLEAR     49  47  93 E5        30.18F
$$

NDZ004>008-012>016-024-026-027-054-270800-
NORTHEAST NORTH DAKOTA

CITY           SKY/WX    TMP DP  RH WIND       PRES   REMARKS
GRAND FORKS    CLEAR     53  51  93 SW6       30.16S
GRND FRKS AFB  CLEAR     52  52 100 W6        30.17S
DEVILS LAKE    CLEAR     57  50  77 W9        30.16S
$$

NDZ022-023-025-028>030-036>039-047>053-270800-
SOUTHEAST NORTH DAKOTA

CITY           SKY/WX    TMP DP  RH WIND       PRES   REMARKS
FARGO          CLEAR     54  54 100 SW3       30.19R FOG
JAMESTOWN      FOG       50  49  96 CALM      30.19S VSB 1/2
$$



USA.gov is the U.S. government's official web portal to all federal, state and local government web resources and services.